Regional Weather Roundup
Issued by NWS

Home | Current Version | Previous Version | Text Only | Print | Product List | Glossary Off
Versions: 1 2 3 4 5 6 7 8 9 10 11 12 13 14 15 16 17 18 19 20 21 22 23 24 25 26 27 28 29 30 31 32 33 34 35 36 37 38 39 40 41 42 43 44 45 46 47 48 49 50

000
ASUS43 KMKX 240421
RWRWI

WISCONSIN REGIONAL WEATHER ROUNDUP
NATIONAL WEATHER SERVICE MILWAUKEE/SULLIVAN WI
1100 PM CDT THU OCT 23 2014

NOTE: "FAIR" INDICATES FEW OR NO CLOUDS BELOW 12,000 FEET WITH NO
SIGNIFICANT WEATHER AND/OR OBSTRUCTIONS TO VISIBILITY.

WIZ001-002-006>008-014>016-023>028-240500-
NORTHWEST WISCONSIN

CITY           SKY/WX    TMP DP  RH WIND       PRES   REMARKS
SUPERIOR ARPT  FOG       37  37 100 CALM      29.94S VSB 1/4
ASHLAND        FOG       37  37 100 CALM      29.96F VSB 3/4
HAYWARD        CLOUDY    49  48  97 S8        29.98S FOG
SIREN          PTCLDY    47  47  97 S7        29.96S FOG
CUMBERLAND     FOG       48  46  93 S5        29.98F VSB 3/4
RICE LAKE      CLOUDY    50  49  95 SE9       30.01S FOG
CHETEK         CLOUDY    50  49  97 SE6       30.01S FOG
LADYSMITH      CLOUDY    50  49  97 S5        30.03R FOG
EAU CLAIRE     CLOUDY    50  48  93 MISG      30.01S
MENOMONIE      NOT AVBL
NEW RICHMOND   MOCLDY    48  48 100 S7        29.98F FOG
OSCEOLA        CLEAR     48  48 100 SE7       30.00S
$$

WIZ003>005-009-010-017-018-240500-
NORTH CENTRAL WISCONSIN

CITY           SKY/WX    TMP DP  RH WIND       PRES   REMARKS
MANITOWISH WTR FOG       45  45 100 SW6       30.00R VSB 1
ARBOR VITAE    FOG       45  44  97 SW5       30.00S VSB 1
WOODRUFF       FOG       45  44  97 SW5       30.00S VSB 1
RHINELANDER    CLOUDY    45  44  97 W10       30.01S FOG
EAGLE RIVER    CLOUDY    44  44 100 SW8       30.00R FOG
LAND O LAKES   FOG       45  45 100 SW5       30.00S VSB 1
PHILLIPS       CLOUDY    46  46 100 SW6       30.01R FOG
TOMAHAWK       CLOUDY    45  44  97 CALM      30.02S FOG
MEDFORD        CLOUDY    46  46 100 SW3       30.02S FOG
MERRILL        FOG       46  46 100 SW3       30.02S VSB 1
$$

WIZ029-030-035-036-043>047-240500-
CENTRAL WISCONSIN

CITY           SKY/WX    TMP DP  RH WIND       PRES   REMARKS
WAUSAU         FOG       46  46 100 CALM      30.01F VSB 1/4
MOSINEE        FOG       45  45 100 CALM      30.03S VSB 1/4
MARSHFIELD     FOG       47  46  97 SW5       30.02F VSB 1
STEVENS POINT  CLOUDY    45  45 100 CALM      30.03S FOG
WAUPACA        CLOUDY    48  47  96 CALM      30.03S FOG
WAUTOMA        FOG       46  46 100 CALM      30.04R VSB 1
WISC RAPIDS    CLOUDY    47  46  97 SW3       30.04S FOG
CAMP DOUGLAS   CLOUDY    46  46 100 SW2       30.03F FOG
$$

WIZ011>013-019>022-031-037>040-048>050-240500-
NORTHEAST WISCONSIN

CITY           SKY/WX    TMP DP  RH WIND       PRES   REMARKS
ANTIGO         FOG       44  44 100 SW3       30.01F VSB 1/2
SHAWANO        CLOUDY    48  47  94 W3        30.03S FOG
OCONTO         CLOUDY    47  47 100 CALM      30.02F
STURGEON BAY   CLOUDY    48  46  93 S6        30.02F
GREEN BAY      CLOUDY    49  48  97 S3        30.02F FOG
MANITOWOC      CLOUDY    50  49  96 SW3       30.04F FOG
APPLETON       CLOUDY    48  46  93 CALM      30.03F FOG
CLINTONVILLE   CLOUDY    46  45  93 W6        30.03R FOG
OSHKOSH        CLOUDY    50  48  93 CALM      30.02F FOG
$$

WIZ032>034-041-042-053>061-240500-
SOUTHWEST WISCONSIN

CITY           SKY/WX    TMP DP  RH WIND       PRES   REMARKS
LA CROSSE      CLOUDY    51  50  96 S3        30.03S FOG
SPARTA         CLOUDY    47  47 100 CALM      30.05S FOG
VIROQUA        CLOUDY    47  47 100 CALM      30.04S VSB 1/4
BOSCOBEL       FOG       50  49  96 CALM      30.05F VSB 1/2
PRAIRIE DU CHI CLOUDY    51  49  94 CALM      30.05S FOG
PLATTEVILLE    CLOUDY    50  50  97 SW5       30.06S
$$

WIZ056-057-062-063-064-067-068-240500-
SOUTH CENTRAL WISCONSIN

CITY           SKY/WX    TMP DP  RH WIND       PRES   REMARKS
REEDSBURG      CLOUDY    47  47  98 SW3       30.04S FOG
BARABOO/DELLS  CLOUDY    47  46  95 CALM      30.04S FOG
LONE ROCK      FOG       52  48  86 W3        30.05S VSB 1
MINERAL POINT  FOG       50  48  93 CALM      30.05S VSB 1/4
MADISON        CLOUDY    51  49  92 CALM      30.04F FOG
MIDDLETON      CLOUDY    52  51  97 CALM      30.04F
WATERTOWN      CLOUDY    50  50 100 SW5       30.04S
MONROE         CLOUDY    50  50 100 SW5       30.05S FOG
JANESVILLE     CLOUDY    52  48  87 S3        30.05F
$$

WIZ051-052-058>065-066-070>072-240500-
SOUTHEAST WISCONSIN

CITY           SKY/WX    TMP DP  RH WIND       PRES   REMARKS
MILWAUKEE      CLOUDY    51  47  86 S5        30.06F
WAUKESHA       CLOUDY    48  45  87 SW3       30.06S
MILWAUKEE/TIMM CLOUDY    50  45  81 S6        30.05F
RACINE         CLOUDY    51  48  89 CALM      30.07F
BURLINGTON     CLOUDY    48  47  99 CALM      30.05F FOG
KENOSHA        CLOUDY    51  49  92 CALM      30.06S FOG
FOND DU LAC    CLOUDY    50  48  93 S5        30.03F FOG
SHEBOYGAN      CLOUDY    50  48  93 MISG      30.04F FOG
WEST BEND      CLOUDY    50  45  81 SW6       30.04S
JUNEAU         CLOUDY    49  49  98 S3        30.04F FOG
$$

LSZ147-162-240500-
LAKE SUPERIOR

STATION/POSITION TIME  TEMP    WIND        PRES    WAVE
                       AIR SEA DIR/SP/G            HT/PER
                 (UTC) (F)     (DEG/KT/KT) (MB)    (FT/S)
W MID LAKE BUOY  0350   49 46  220/ 10/ 14 1014.3F   0
DEVILS ISLAND    0400   50     180/  8/ 10 1014.3F
PORT WING        0300   51     170/  8/ 11 1013.9F
SAXON HARBOR     0300   45        CALM     1014.9S
$$

LMZ867-665-643>646-240500-
LAKE MICHIGAN

STATION/POSITION TIME  TEMP    WIND        PRES    WAVE
                       AIR SEA DIR/SP/G            HT/PER
                 (UTC) (F)     (DEG/KT/KT) (MB)    (FT/S)
CHAMBERS ISLAND  0300   50     200/  3/  9 1017.3F
N MID LAKE BUOY  0350   51 51  210/ 14/ 17 1017.0F   3/ 5
NORTHPORT PIER   0300   49     170/  4/  6 1016.9F
SISTER BAY       0328          190/  8/  9   N/A
ALGOMA LAKESHORE 0141          220/ 11/ 12   N/A
KEWAUNEE LAKESHO 0400   50     180/  6/  6 1016.1F
SHEBOYGAN LAKESH 0400   52 52  200/  7/  8 1017.7F
PORT WASHINGTON  0300   53     190/  4/  5 1018.3
ATWATER BUOY     0400   52     170/  8/  8 1018.5F
MILWAUKEE LAKESH 0400   52     200/  6/  7   N/A
S MID LAKE BUOY  0350   54 54  160/  4/  6 1018.6S   1/ 4
KENOSHA   LAKESH 0400   52     150/  2/  2 1017.9S
$$

TC  - TEMPERATURE IN CELSIUS
VSB - VISIBILITY IN STATUTE MILES
WCI - WIND CHILL INDEX
HX  - HEAT INDEX




USA.gov is the U.S. government's official web portal to all federal, state and local government web resources and services.